Ishigakijima, Japan

2:51 AM JST on November 25, 2017 (GMT +0900)
Ishigaki

Weather History for ROIG - January, 2013

Change the Weather History Date:

Monday, January 7, 2013

  Actual Average Record
Temperature  
Mean Temperature 70 °F -  
Max Temperature 74 °F 69 °F 80 °F (2017)
Min Temperature 68 °F 60 °F 51 °F (2006)
Cooling Degree Days 6    
Growing Degree Days 20 (Base 50)    
Moisture  
Dew Point 68 °F    
Average Humidity 90    
Maximum Humidity 94    
Minimum Humidity 77    
Precipitation  
Precipitation 0.02 in 0.16 in - ()
Sea Level Pressure  
Sea Level Pressure 29.99 in    
Wind  
Wind Speed 10 mph ()    
Max Wind Speed 14 mph    
Max Gust Speed -    
Visibility 5.8 miles    
Events Rain    
Averages and records for this station are not official NWS values.
T = Trace of Precipitation, MM = Missing Value Source: Averaged Metar Reports

Daily Weather History Graph

Daily Weather History Graph

Search for Another Location

Airport or City:

Trip Planner

Search our weather history database for the weather conditions in past years. The results will help you decide how hot, cold, wet, or windy it might be!

Date:

Astronomy

Jan. 07, 2013 Rise Set
Actual Time 7:28 AM JST 6:10 PM JST
Civil Twilight 7:03 AM JST 6:35 PM JST
Nautical Twilight 6:35 AM JST 7:03 PM JST
Astronomical Twilight 6:07 AM JST 7:31 PM JST
Moon 2:21 AM JST (1/7) 1:46 PM JST (1/7)
Length of Visible Light 11h 31m
Length of Day
10h 42m
Waning Crescent, 29% of the Moon is Illuminated
Jan 7
Waning Crescent
Jan 12
New
Jan 19
First Quarter
Jan 27
Full
Feb 3
Last Quarter

Hourly Weather History & Observations

Time (JST) Temp. Dew Point Humidity Pressure Visibility Wind Dir Wind Speed Gust Speed Precip Events Conditions
12:00 AM 69 °F 65 °F 81% 30.05 in - ENE 12.7 mph - -  
3:00 AM 70 °F 64 °F 77% 30.01 in 9 mi ENE 12.7 mph - -   Partly Cloudy
6:00 AM 70 °F 65 °F 80% 30.02 in 12 mi East 13.8 mph - - Rain Light Rain Showers
6:00 AM 69.8 °F 64.4 °F 83% 30.01 in 6.2 mi ENE 11.5 mph - N/A   Mostly Cloudy
7:00 AM 69.8 °F 66.2 °F 88% 30.01 in 6.2 mi ENE 10.4 mph - N/A Rain Light Rain
8:00 AM 69.8 °F 66.2 °F 88% 30.04 in 6.2 mi ENE 10.4 mph - N/A   Mostly Cloudy
9:00 AM 70 °F 67 °F 88% 30.05 in 6 mi East 13.8 mph - - Rain Light Rain Showers
9:00 AM 69.8 °F 66.2 °F 88% 30.04 in 5.6 mi East 12.7 mph - N/A Rain Light Rain
10:00 AM 69.8 °F 68.0 °F 94% 30.06 in 5.6 mi East 11.5 mph - N/A Rain Light Rain
11:00 AM 71.6 °F 68.0 °F 88% 30.04 in 6.2 mi East 13.8 mph - N/A   Mostly Cloudy
12:00 PM 71 °F 69 °F 91% 30.03 in 4 mi East 12.7 mph - - Rain Light Rain Showers
12:00 PM 71.6 °F 68.0 °F 88% 30.01 in 3.1 mi East 10.4 mph - N/A Rain Light Rain
12:10 PM 71.6 °F 68.0 °F 88% 30.01 in 3.1 mi East 10.4 mph - N/A Rain Light Rain
12:39 PM 71.6 °F 69.8 °F 94% 30.01 in 4.3 mi East 10.4 mph - N/A   Mostly Cloudy
1:00 PM 73.4 °F 68.0 °F 83% 29.98 in 5.0 mi East 10.4 mph - N/A   Mostly Cloudy
2:00 PM 71.6 °F 69.8 °F 94% 29.95 in 5.0 mi East 8.1 mph - N/A   Mostly Cloudy
3:00 PM 72 °F 70 °F 92% 29.95 in 6 mi ESE 11.5 mph - - Rain Light Rain Showers
3:00 PM 71.6 °F 69.8 °F 94% 29.92 in 5.0 mi SE 10.4 mph - N/A Rain Light Rain
4:00 PM 71.6 °F 69.8 °F 94% 29.92 in 6.2 mi ESE 8.1 mph - N/A   Mostly Cloudy
5:00 PM 71.6 °F 69.8 °F 94% 29.92 in 6.2 mi ESE 8.1 mph - N/A   Mostly Cloudy
5:24 PM 71.6 °F 69.8 °F 94% 29.92 in 6.2 mi East 8.1 mph - N/A   Mostly Cloudy
6:00 PM 72 °F 70 °F 91% 29.94 in 6 mi East 8.1 mph - -   Partly Cloudy
6:00 PM 71.6 °F 69.8 °F 94% 29.92 in 6.2 mi East 6.9 mph - N/A   Mostly Cloudy
7:00 PM 71.6 °F 69.8 °F 94% 29.92 in 5.0 mi ESE 5.8 mph - N/A Rain Light Rain
8:00 PM 71.6 °F 69.8 °F 94% 29.95 in 5.0 mi ESE 5.8 mph - N/A Rain Light Rain
9:00 PM 72 °F 71 °F 94% 29.96 in 6 mi South 8.1 mph - - Rain Light Rain Showers